Simultaneous Nadir Overpasses (SNOs) Predictions

Prediction of SNOs between GOES-17 and AQUA Satellite Orbit:

Table of predicted SNOs for the next 14.0 days since TLE Epoch: 11/28/2025
Index Date Time (GOES-17) GOES-17 Lat,Lon AQUA Lat,Lon Distance(km) Time Diff (sec)
1 11/29/2025 08:43:23 0.15, -89.51 -0.65, -85.74 429.01 80
2 11/29/2025 21:05:06 -0.19, -89.49 -0.37, -90.34 97.24 80
3 12/01/2025 20:41:16 -0.17, -89.49 0.79, -85.16 493.76 80
4 12/02/2025 09:02:51 0.21, -89.53 0.26, -89.72 21.81 80
5 12/04/2025 20:58:03 -0.23, -89.50 -0.17, -89.12 42.25 80
6 12/05/2025 09:19:39 0.26, -89.54 1.15, -93.70 472.51 80
7 12/07/2025 08:55:47 0.25, -89.54 0.02, -88.50 118.69 80
8 12/07/2025 21:17:30 -0.28, -89.50 -1.06, -93.09 408.55 80
9 12/09/2025 20:53:38 -0.26, -89.52 0.12, -87.91 184.32 80
10 12/10/2025 09:15:12 0.30, -89.57 0.90, -92.47 329.42 80
11 12/12/2025 08:51:19 0.27, -89.59 -0.20, -87.26 264.30 80
